Theta_e
333 333 331 326 323 320 324 324 322 324 325 330 332 333 335 335 335 334 336 334 332 330 330 331 325 321 321 326 332 334 333 332 330 328 324 327 323 316 314 314 311 313 314 313 314 315 319 320 323
332 333 327 326 324 323 322 323 326 326 329 332 333 334 335 334 335 336 337 337 330 329 329 331 323 321 323 327 330 331 330 330 330 327 325 326 326 321 315 314 314 313 313 313 316 315 317 320 323
331 328 325 320 322 320 322 326 326 328 329 328 333 336 335 335 336 338 338 337 334 327 329 323 322 320 323 327 330 329 331 330 328 328 327 328 327 325 318 312 312 312 312 313 314 315 318 318 320
328 325 324 325 329 324 325 325 324 323 325 329 331 333 335 335 336 336 336 336 335 331 330 321 320 318 320 326 330 330 329 330 329 329 329 329 328 327 318 312 312 312 312 313 314 316 317 319 317
326 324 324 325 326 320 324 324 323 322 324 328 333 334 335 334 335 336 335 336 332 333 322 322 318 318 320 316 322 325 327 328 328 327 327 327 327 325 318 312 312 312 313 313 313 313 316 319 318
326 323 325 329 328 320 324 324 323 324 327 334 334 334 334 334 334 336 335 335 334 330 324 318 318 320 317 311 314 323 326 327 328 328 327 323 319 326 317 314 313 313 313 313 312 312 314 315 314
325 320 324 326 327 321 322 325 324 323 323 328 333 333 334 334 334 335 334 334 333 328 324 315 316 324 314 311 311 310 313 320 323 324 322 318 317 326 320 314 313 313 313 313 313 312 314 316 315
326 322 326 324 325 323 323 323 324 323 324 331 334 332 332 333 334 334 334 334 332 328 324 315 316 322 316 310 309 309 309 309 310 310 310 311 312 316 314 313 313 314 314 314 315 315 316 317 316
324 323 327 325 322 322 323 321 323 325 327 327 328 331 332 333 333 334 333 332 332 331 326 318 314 320 318 311 309 309 309 309 309 309 309 310 311 313 313 313 314 315 315 314 315 315 316 316 316
324 323 326 325 323 321 323 322 324 325 326 328 330 332 333 334 334 334 333 333 333 331 327 322 313 312 316 313 310 310 311 310 309 309 310 311 312 313 313 314 315 315 315 315 315 315 315 316 316
324 325 325 321 323 323 323 321 322 325 323 325 324 330 333 334 334 335 334 333 333 332 328 325 317 314 312 313 312 311 312 312 310 311 312 312 313 312 313 313 315 315 316 315 315 315 315 315 316
326 326 326 323 318 322 321 322 320 324 323 323 321 321 331 334 334 334 334 333 333 332 328 324 326 320 315 313 311 312 312 313 312 313 314 313 313 312 312 313 314 315 316 316 315 315 315 315 315
328 329 326 324 319 319 321 319 319 319 321 323 323 326 327 330 333 333 333 333 332 332 329 327 328 324 319 315 312 312 313 313 313 313 314 314 314 314 313 313 314 316 316 316 316 315 315 315 315
329 329 324 319 319 319 318 319 319 318 319 323 325 326 326 326 330 332 332 332 331 331 331 326 328 325 320 316 314 313 314 314 314 314 315 315 315 315 315 315 315 316 317 317 317 317 316 315 315
328 329 320 318 318 318 319 320 319 320 318 321 325 327 328 324 328 329 328 330 330 331 331 330 324 325 322 318 316 314 315 316 317 316 316 316 316 316 316 316 316 317 317 317 317 318 318 317 316
325 327 326 321 317 318 319 321 319 320 318 325 325 327 328 327 324 324 327 328 329 329 329 327 323 323 324 320 318 316 315 317 317 318 318 317 317 318 317 317 317 318 318 318 318 318 319 319 318
327 329 327 325 317 317 319 322 323 322 318 319 324 325 325 326 327 326 323 326 328 328 328 328 326 323 322 322 320 319 317 317 318 318 318 319 319 319 319 319 319 319 319 319 320 320 320 320 320
328 330 325 328 318 317 318 322 321 321 323 322 321 319 321 324 323 322 323 324 324 325 327 328 329 326 323 322 323 321 320 319 319 319 319 319 319 320 320 320 321 321 321 321 321 321 321 321 321
326 327 327 325 320 318 318 319 320 322 320 320 322 323 322 320 322 321 323 325 326 327 327 327 328 329 327 323 322 323 320 319 319 319 318 319 319 320 320 320 321 322 322 322 323 322 323 323 322
326 328 327 322 320 319 319 319 317 318 320 322 323 324 323 323 322 321 322 324 328 327 326 329 329 327 327 327 323 322 321 319 318 319 318 318 319 320 320 321 321 321 322 323 324 324 323 321 323
326 328 328 326 319 318 319 320 319 318 319 322 323 323 324 324 323 323 322 323 325 328 328 326 327 326 327 326 325 324 323 323 321 319 318 319 319 320 320 321 322 322 322 323 324 325 323 322 320
330 326 327 322 323 324 318 323 315 316 317 317 320 322 323 324 324 324 323 321 323 324 325 326 326 325 327 328 326 324 324 323 323 322 322 320 320 321 321 321 322 323 323 323 324 325 324 322 320
327 319 322 323 322 319 316 319 317 314 315 314 315 320 322 323 324 323 324 322 320 323 323 323 324 326 326 327 327 327 325 324 324 324 323 323 322 322 322 322 322 323 324 325 325 326 323 321 320
319 319 320 318 318 326 320 319 318 316 316 315 315 318 319 320 323 323 324 324 324 321 322 324 325 324 325 325 326 327 327 325 326 326 325 325 325 324 323 323 323 323 324 325 325 326 324 322 322
321 325 322 324 324 326 315 318 322 315 314 312 314 318 320 321 320 321 322 322 322 323 323 322 323 324 324 325 326 326 324 325 327 327 326 326 325 324 323 325 325 324 324 325 325 327 325 323 323
324 326 323 328 324 321 313 320 320 314 318 316 316 317 319 319 320 320 319 318 319 318 318 320 321 322 322 323 325 325 326 326 327 328 328 328 326 324 324 325 325 325 325 325 326 327 327 325 323
324 325 318 312 303 312 313 313 312 311 312 314 315 314 315 316 315 315 314 314 316 316 316 317 319 320 321 323 323 325 326 327 328 327 329 329 328 327 327 326 326 326 326 326 327 327 327 326 324
321 317 318 315 315 316 314 313 314 314 313 311 309 313 314 314 314 314 314 314 313 313 312 312 314 315 316 318 321 324 325 326 327 328 328 327 327 329 330 329 329 329 328 327 328 328 328 328 326
318 321 317 315 313 318 315 314 310 313 314 312 309 313 315 315 314 313 311 311 311 311 311 311 310 310 310 310 311 312 315 320 324 326 327 328 329 330 331 331 330 330 329 329 329 329 329 329 328
318 321 315 322 318 313 314 313 309 312 313 312 312 314 315 315 315 313 311 311 311 311 311 311 311 311 310 310 310 310 309 309 310 313 316 322 325 327 327 327 327 327 327 328 328 329 327 327 327
Wind_Speed
13 13 13 4 4 5 1 1 1 3 3 5 9 13 9 6 1 3 21 14 23 15 11 8 6 7 9 11 11 11 10 8 7 6 6 8 9 9 10 10 13 15 15 15 17 16 17 15 16
13 12 6 2 4 3 3 1 5 2 9 17 11 7 8 3 4 16 19 14 18 12 11 7 6 9 9 11 10 8 6 5 5 7 8 8 10 11 12 14 15 16 15 15 16 16 16 15 15
11 10 5 4 3 2 4 3 6 6 7 6 6 11 4 6 15 18 17 19 16 16 11 7 7 9 11 12 10 10 9 8 7 11 12 14 11 9 10 13 16 16 15 15 15 15 14 14 15
7 3 2 4 1 2 7 6 7 8 9 7 15 8 6 8 12 16 20 14 16 15 12 9 9 10 12 13 12 10 13 13 15 16 18 16 13 9 9 13 14 14 15 15 15 15 14 13 15
4 2 3 2 3 1 3 13 11 5 6 7 5 4 5 15 8 19 15 13 18 15 11 9 10 10 10 11 13 13 14 17 17 16 15 14 15 10 10 13 13 13 14 14 14 13 13 12 13
3 1 3 1 2 2 3 14 13 7 10 11 11 10 6 11 14 20 17 13 13 12 12 11 12 11 10 8 11 16 16 18 19 18 16 12 13 13 10 12 12 12 13 13 13 14 14 12 12
1 3 4 4 3 4 6 14 16 11 12 6 20 5 10 17 16 20 17 13 12 10 12 12 12 12 11 9 8 10 13 17 17 17 15 14 13 14 10 12 11 11 12 12 13 14 14 11 11
3 3 3 3 3 5 6 6 12 16 4 17 10 8 9 20 21 20 17 14 13 12 12 12 13 12 12 10 7 6 6 7 10 10 9 10 11 13 11 12 10 10 11 12 14 15 14 12 10
2 3 3 4 6 4 10 5 7 6 15 8 9 9 6 28 25 22 22 19 16 14 13 14 13 13 12 12 10 7 8 8 10 10 9 8 9 11 11 11 10 9 10 11 12 13 12 11 9
4 3 7 5 5 5 11 10 11 7 10 4 8 9 23 33 31 28 28 24 21 18 16 16 15 14 14 14 13 12 10 11 13 13 11 11 10 10 11 11 10 10 9 10 11 11 10 9 9
5 4 4 1 9 14 15 8 8 16 3 11 18 19 31 35 34 30 29 25 23 18 17 18 17 16 14 14 14 15 15 13 13 12 11 10 9 9 10 10 10 9 9 8 8 8 8 7 7
3 9 5 2 1 8 13 13 7 15 6 11 13 18 27 34 36 33 31 28 24 21 18 19 17 17 17 16 14 13 13 13 13 12 10 10 9 9 9 10 9 9 8 7 7 7 8 8 8
2 3 10 6 4 6 12 8 7 9 8 11 18 22 25 30 35 33 30 27 25 23 20 19 18 18 19 17 18 17 16 14 13 13 11 11 11 10 10 10 10 9 9 8 8 7 7 7 8
5 12 5 9 7 4 7 3 4 10 13 16 22 23 24 26 33 34 33 32 30 26 24 21 20 18 20 19 18 18 17 16 16 14 12 11 10 11 10 10 10 11 10 10 9 8 8 8 9
8 3 2 5 8 4 7 1 6 7 17 21 25 24 24 23 30 34 32 35 32 29 26 27 24 21 20 21 20 20 19 19 18 15 14 13 12 12 12 11 11 11 11 11 10 10 10 10 10
5 4 6 4 8 4 7 6 13 11 21 24 25 24 24 24 25 28 32 33 32 31 30 29 28 27 25 23 22 22 23 20 19 18 17 16 16 15 14 13 12 12 13 12 12 12 12 11 11
5 4 7 3 15 3 6 5 16 19 21 22 25 26 26 25 26 25 26 32 32 32 32 32 30 30 29 25 25 25 24 23 22 21 21 20 19 19 18 16 15 15 15 15 14 14 14 14 14
7 5 7 8 9 6 5 7 4 11 25 30 29 28 29 29 28 24 25 26 29 30 31 31 31 30 31 30 27 28 28 27 26 25 24 23 23 22 22 20 19 19 18 18 17 17 17 17 16
9 8 11 8 5 5 11 8 11 14 11 16 26 34 35 33 29 27 26 26 28 30 30 30 32 32 32 35 34 33 34 33 32 30 28 27 26 26 26 24 23 23 23 20 19 19 19 20 18
14 12 11 3 3 7 6 13 10 12 14 21 24 28 27 34 30 33 32 31 33 31 31 31 32 32 33 35 37 36 34 35 35 34 33 31 30 29 29 28 28 28 26 24 23 23 21 19 20
8 18 11 7 4 1 3 8 7 10 20 29 34 35 32 33 32 30 34 36 35 35 34 33 33 33 33 33 36 39 38 38 37 38 38 36 34 32 32 31 30 30 30 28 26 26 25 23 20
18 7 8 6 10 6 6 5 5 8 14 12 35 37 40 40 37 33 33 36 40 37 34 34 33 34 33 34 36 39 42 43 41 40 39 38 37 36 35 35 33 32 32 32 29 27 27 26 25
6 10 8 5 6 4 4 2 6 3 7 11 22 37 45 41 37 36 31 33 35 38 37 35 34 34 34 35 38 38 40 42 42 42 40 39 39 39 38 38 37 35 34 34 32 30 30 29 25
10 10 8 5 1 9 9 8 5 6 8 6 15 31 30 37 39 34 32 31 32 34 40 40 40 37 35 35 38 40 40 41 43 42 41 41 40 40 40 40 40 38 38 37 36 33 32 33 32
8 18 4 4 4 5 7 7 12 7 8 10 15 21 24 22 27 33 34 33 31 32 34 37 42 41 39 38 38 39 40 41 42 42 41 41 40 40 40 41 42 42 41 40 39 39 37 36 37
25 18 6 8 5 4 4 9 8 13 23 18 12 12 21 21 22 21 22 24 26 26 27 31 34 36 40 40 40 39 40 41 42 42 43 43 43 42 41 41 42 42 43 42 42 43 42 40 40
11 14 11 7 3 3 5 6 9 7 9 17 20 11 17 20 21 18 15 15 17 18 19 23 26 27 32 35 37 40 41 42 43 42 44 45 45 45 44 44 42 41 43 44 45 46 47 45 43
15 10 7 1 7 5 4 5 7 7 11 13 10 23 24 20 17 16 15 17 17 16 16 17 18 21 23 27 31 34 38 40 42 44 46 47 47 48 48 47 46 45 43 42 44 47 49 51 50
8 13 6 5 4 9 4 7 9 17 17 16 16 28 26 23 21 17 15 16 14 11 9 8 9 10 13 16 22 27 32 36 39 43 46 49 49 50 51 50 49 47 45 44 44 46 48 51 54
19 20 6 13 8 4 4 6 7 16 15 18 25 30 25 24 25 22 21 22 12 8 5 7 7 6 7 10 12 16 19 25 33 39 42 44 45 45 45 44 45 45 46 45 44 46 44 47 50
Wind_Direction
329 331 325 341 50 62 38 32 133 80 61 63 80 96 113 74 52 168 137 144 167 169 171 156 137 137 140 137 132 129 126 124 125 116 105 92 84 86 107 102 94 97 93 93 92 97 93 91 92
329 332 332 38 77 63 283 311 127 129 122 107 81 78 56 65 82 142 145 146 179 175 164 160 160 157 154 148 152 158 152 148 145 129 114 100 105 97 95 100 101 96 93 94 103 101 103 99 92
321 320 348 82 107 155 180 212 149 121 118 117 104 75 76 119 132 147 154 156 177 178 167 173 162 158 156 156 156 162 142 137 142 129 105 103 104 92 94 93 97 95 95 99 106 109 103 97 97
325 317 52 81 228 230 163 185 159 130 94 83 113 73 94 131 158 167 156 159 182 173 171 175 161 155 154 157 163 148 145 144 134 130 130 123 115 114 102 98 98 95 97 107 111 110 108 101 92
310 338 45 58 283 302 105 165 155 118 103 112 130 122 99 149 181 156 160 182 177 172 167 172 157 154 157 176 173 152 140 138 130 128 133 152 125 133 119 109 103 100 101 108 114 119 119 111 98
299 74 67 208 217 99 155 166 144 124 123 121 107 113 120 170 178 169 176 191 190 175 169 176 163 157 156 159 150 143 140 142 141 140 144 151 143 131 128 114 112 108 107 113 120 124 125 120 104
189 93 202 201 224 161 187 172 150 146 143 148 138 100 147 164 178 177 188 185 182 181 176 177 170 156 151 152 154 153 153 152 153 154 152 140 134 144 135 128 121 113 111 116 120 125 128 121 107
255 120 181 239 190 229 155 136 164 142 115 144 163 160 178 183 178 180 186 187 191 182 186 184 174 168 157 147 148 143 141 159 152 149 148 144 141 152 127 130 124 117 118 123 124 128 129 126 120
229 74 205 223 165 215 165 130 144 151 139 157 180 174 179 170 180 181 186 183 192 188 197 191 182 177 174 163 160 162 155 155 146 147 148 148 142 133 142 139 136 134 134 135 139 140 141 140 137
205 153 217 218 190 184 167 147 142 132 135 133 155 168 162 173 183 186 190 190 194 196 192 199 191 187 183 179 173 172 174 170 164 165 158 153 149 144 151 154 152 150 148 148 149 150 153 150 149
191 206 229 227 215 176 171 150 164 154 206 194 184 163 170 176 187 193 194 202 205 201 199 195 196 195 197 194 190 184 180 182 178 173 167 165 164 164 164 168 166 165 162 160 161 169 172 171 168
218 231 248 230 115 185 161 156 151 173 199 202 194 178 175 183 188 195 199 201 208 209 204 202 199 205 197 202 202 200 193 188 189 186 186 185 180 175 179 180 183 182 182 180 177 178 181 185 183
249 302 238 255 208 130 148 167 175 196 171 185 179 178 184 192 196 198 206 207 212 215 209 211 206 208 202 200 202 201 201 200 202 203 199 198 190 190 193 193 196 201 204 202 197 195 194 199 199
231 237 265 215 192 152 147 152 171 198 185 175 184 189 192 197 201 200 205 210 215 218 219 218 217 214 209 207 207 209 207 205 209 214 213 212 206 206 207 207 209 212 213 213 211 211 209 211 210
221 204 286 222 192 179 153 249 217 178 191 183 190 198 198 203 205 208 210 211 217 222 226 223 222 225 224 218 213 214 216 213 216 219 223 223 222 221 221 220 220 219 222 223 222 223 223 223 221
149 176 202 227 167 209 176 242 234 198 185 191 197 203 210 210 214 215 215 218 217 218 224 226 223 224 230 227 224 219 220 222 223 221 224 228 228 230 233 232 233 232 233 232 232 232 234 233 232
197 191 202 194 199 137 180 240 236 203 193 201 206 211 217 221 222 219 221 222 221 222 220 224 225 228 230 234 230 230 229 231 230 229 228 230 233 235 239 240 240 240 242 242 241 241 240 238 238
162 200 190 205 207 184 188 245 262 194 211 224 222 217 221 227 228 224 220 221 221 224 222 223 229 232 231 233 235 232 234 235 234 234 234 233 236 239 241 243 240 242 244 244 244 245 246 245 244
168 162 195 212 197 137 202 215 235 213 219 223 230 233 234 228 238 234 230 227 224 223 225 224 229 234 233 232 231 231 233 237 237 239 239 238 240 241 243 243 245 245 248 250 251 249 249 250 245
166 193 197 226 182 171 205 238 242 244 241 235 233 233 232 230 231 233 236 232 229 229 230 230 232 234 237 238 238 237 237 239 242 244 244 244 243 243 245 246 247 247 249 247 245 245 253 251 246
184 199 198 201 106 8 108 271 222 250 244 245 248 247 240 234 230 230 233 234 234 232 233 235 236 237 236 240 239 239 240 242 242 241 243 244 246 246 247 249 249 250 251 251 248 249 251 247 248
204 159 189 152 151 201 162 270 249 216 236 223 242 242 240 239 237 237 235 234 232 235 239 242 243 242 242 241 241 241 242 243 245 247 249 248 247 249 250 251 251 252 252 252 250 250 252 250 251
188 128 147 182 174 127 199 214 265 188 236 230 233 238 240 237 238 235 236 237 237 235 238 243 246 246 245 246 246 247 248 251 251 251 253 253 253 252 255 254 253 252 253 253 251 248 247 245 242
124 95 47 39 59 222 196 188 246 197 206 246 233 237 238 235 233 233 237 239 242 240 241 241 243 249 249 250 250 253 255 254 254 254 255 255 254 254 255 256 255 255 253 252 251 248 246 245 241
146 156 134 191 206 230 159 183 238 230 240 225 235 232 226 225 231 236 240 242 243 243 241 242 243 246 252 254 254 255 259 259 258 261 263 263 261 258 256 254 256 256 255 253 251 247 245 244 242
175 175 159 170 183 195 120 222 237 220 220 218 215 238 215 212 218 227 233 239 241 244 242 241 244 249 250 252 257 260 261 261 262 264 265 265 266 267 267 264 261 261 261 259 255 250 248 247 245
179 195 168 97 349 99 204 280 298 209 229 238 240 211 184 181 185 192 203 215 222 233 236 237 240 244 248 252 257 259 262 262 264 267 268 269 271 271 270 270 269 265 263 262 261 257 252 249 247
183 157 162 208 145 218 250 274 221 220 216 231 205 206 196 189 192 197 213 218 223 230 236 236 235 240 246 252 255 258 261 264 266 267 267 269 271 273 274 274 274 274 270 265 263 261 258 253 250
157 188 180 133 173 188 161 244 203 203 216 202 203 202 197 193 197 194 198 185 171 169 181 201 219 231 245 252 254 254 253 255 257 260 264 268 271 271 274 275 276 276 277 274 268 264 263 260 255
179 189 177 188 206 231 163 258 189 207 208 185 198 198 198 204 198 191 184 175 180 186 199 216 221 244 266 271 271 268 267 263 260 259 260 262 265 268 269 270 272 273 272 272 273 267 265 265 265